User: anonymous   Login
Location: Unspecified
(0.0000°N, 0.0000°E)
Time: 00:49:41
(UTC+02:00)
Language:

Ariane 42L R/B - Orbit

View from above orbital plane
View from above orbital plane
View from above satellite
View from above satellite

Ground track
Ground track

The orbit data is extracted from the following two-line orbital elements,

1 26299U 00020B   17205.51531623 +.00000996 +00000-0 +39898-3 0  9995
2 26299 007.4852 273.4519 5923335 291.8648 017.0551 04.11553335220468
Epoch (UTC): 24 July 2017 12:22:03
Eccentricity: 0.5923335
inclination: 7.4852°
perigee height: 327 km
apogee height: 19812 km
right ascension of ascending node: 273.4519°
argument of perigee: 291.8648°
revolutions per day: 4.11553335
mean anomaly at epoch: 17.0551°
orbit number at epoch: 22046

The dashed part of the orbit path shows where the satellite is in the earth's shadow,  

DLR